Change the Weather History Date:

Friday, June 21, 2013

  Actual Average Record
Temperature  
Mean Temperature 87 °F 74 °F  
Max Temperature 102 °F 90 °F 106 °F (1974)
Min Temperature 72 °F 59 °F 50 °F (2004)
Degree Days  
Heating Degree Days 0 0  
Month to date heating degree days 11 15  
Since 1 June heating degree days 11 15  
Since 1 July heating degree days 5085 5270  
Cooling Degree Days 22 10  
Month to date cooling degree days 240 146  
Year to date cooling degree days 378 219  
Since 1 June cooling degree days 240 146  
Growing Degree Days 36 (Base 50)    
Moisture  
Dew Point 26 °F    
Average Humidity 23    
Maximum Humidity 44    
Minimum Humidity 2    
Precipitation  
Precipitation 0.00 in 0.04 in 0.63 in (2006)
Month to date precipitation 2.00 0.96  
Year to date precipitation 2.67 5.25  
Sea Level Pressure  
Sea Level Pressure 29.60 in    
Wind  
Wind Speed 15 mph (WSW)    
Max Wind Speed 37 mph    
Max Gust Speed 39 mph    
Visibility 10 miles    
Events      
T = Trace of Precipitation, MM = Missing Value Source: NWS Daily Summary

Daily Weather History Graph

Daily Weather History Graph

Search for Another Location

Airport or City:

Trip Planner

Search our weather history database for the weather conditions in past years. The results will help you decide how hot, cold, wet, or windy it might be!

Date:

Astronomy

Jun. 21, 2013 Rise Set
Actual Time 5:31 AM MDT 8:20 PM MDT
Civil Twilight 5:00 AM MDT 8:51 PM MDT
Nautical Twilight 4:20 AM MDT 9:31 PM MDT
Astronomical Twilight 3:35 AM MDT 10:16 PM MDT
Moon 6:34 PM MDT (6/21) 3:47 AM MDT (6/21)
Length of Visible Light 15h 51m
Length of Day
14h 48m
Waxing Gibbous, 95% of the Moon is Illuminated
Jun 21
Waxing Gibbous
Jun 23
Full
Jun 29
Last Quarter
Jul 8
New
Jul 15
First Quarter

Hourly Weather History & Observations

Time (MDT) Temp. Dew Point Humidity Pressure Visibility Wind Dir Wind Speed Gust Speed Precip Events Conditions
12:53 AM 81.0 °F 43.0 °F 26% 29.64 in 10.0 mi North - - N/A   Clear
1:53 AM 79.0 °F 46.0 °F 31% 29.64 in 10.0 mi SSW 20.7 mph 29.9 mph N/A   Clear
2:53 AM 78.1 °F 48.0 °F 35% 29.62 in 10.0 mi SSW 29.9 mph 38.0 mph N/A   Clear
3:53 AM 77.0 °F 48.9 °F 37% 29.62 in 10.0 mi SW 31.1 mph 39.1 mph N/A   Clear
4:53 AM 75.0 °F 48.0 °F 38% 29.62 in 10.0 mi North - - N/A   Clear
5:53 AM 72.0 °F 48.0 °F 43% 29.62 in 10.0 mi North - - N/A   Clear
6:53 AM 73.0 °F 48.9 °F 42% 29.65 in 10.0 mi North - - N/A   Clear
7:53 AM 78.1 °F 39.0 °F 25% 29.66 in 10.0 mi North - - N/A   Clear
8:53 AM 82.0 °F 32.0 °F 16% 29.67 in 10.0 mi West 13.8 mph - N/A   Clear
9:53 AM 84.9 °F 34.0 °F 16% 29.68 in 10.0 mi West 10.4 mph - N/A   Clear
10:53 AM 90.0 °F 28.9 °F 11% 29.67 in 10.0 mi WNW 6.9 mph - N/A   Clear
11:53 AM 97.0 °F 8.1 °F 4% 29.62 in 10.0 mi West 18.4 mph 25.3 mph N/A   Clear
12:53 PM 99.0 °F 7.0 °F 4% 29.61 in 10.0 mi WSW 16.1 mph 26.5 mph N/A   Clear
1:53 PM 99.0 °F 8.1 °F 4% 29.59 in 10.0 mi South 10.4 mph 20.7 mph N/A   Clear
2:53 PM 100.0 °F 3.9 °F 4% 29.56 in 10.0 mi SW 9.2 mph 20.7 mph N/A   Clear
3:53 PM 100.9 °F 3.9 °F 4% 29.54 in 10.0 mi West 12.7 mph 17.3 mph N/A   Clear
4:53 PM 100.9 °F 1.0 °F 4% 29.52 in 10.0 mi WSW 17.3 mph 23.0 mph N/A   Clear
5:53 PM 100.0 °F 5.0 °F 4% 29.50 in 10.0 mi WSW 8.1 mph - N/A   Clear
6:53 PM 97.0 °F 10.0 °F 4% 29.50 in 10.0 mi South 4.6 mph - N/A   Clear
7:53 PM 91.0 °F 19.0 °F 7% 29.51 in 10.0 mi WSW 15.0 mph - N/A   Clear
8:53 PM 87.1 °F 19.0 °F 8% 29.52 in 10.0 mi WSW 17.3 mph - N/A   Clear
9:53 PM 82.9 °F 19.9 °F 10% 29.56 in 10.0 mi SW 10.4 mph - N/A   Clear
10:53 PM 78.1 °F 23.0 °F 13% 29.58 in 10.0 mi West 13.8 mph - N/A   Clear
11:53 PM 75.9 °F 24.1 °F 15% 29.59 in 10.0 mi SW 9.2 mph - N/A   Clear